Weerstation Grootegast  Weerstation Grootegast


15 daagse weersverwachting Schiedam (NL)

  • Overzicht
  • Per uur
  • 15 dagen
  • Extra
  • Vergelijk
  • Kaarten
  • Dagkaart
  • Meer »
  • Info
  • Statistieken
  • Directe link
    Temp 6h Neerslag Wind  
 07:42     18:10    Daglengte: 10:28 Vandaag
13:00
11°
10.2 mm
14
19:00
9.4 mm
7
 07:40     18:12    Daglengte: 10:32 Morgen
01:00
 
4
07:00
2.7 mm
3
13:00
15.4 mm
8
19:00
10°
20.5 mm
12
 07:38     18:14    Daglengte: 10:36 Dinsdag 25 Feb
01:00
 
9
07:00
 
9
13:00
13.5 mm
9
19:00
12.6 mm
5
 07:36     18:16    Daglengte: 10:40 Woensdag 26 Feb
01:00
24.1 mm
8
07:00
39.5 mm
6
Locatie info
Region: Zuid-Holland
Latitude: 51.9185°N
Longitude: 4.3982°E
0 masl
Postcode: 3111 NG
Temp/Neerslag /Baro Onweer/DauwpuntSneeuw
    Temp Baro 1h Neerslag Dauwpunt Wind UV BewolkingSneeuw  
 07:42     18:10    Daglengte: 10:28 Vandaag
13:00
11°
1008.4 hPa 10.2 mm
48%
8.7°
14
Windvlaag: 7.7 m/s
91%
14:00
11°
1009.1 hPa 2.8 mm
82%
8.9°
13
Windvlaag: 7 m/s
91%
15:00
10°
1010.8 hPa 2.9 mm
80%
7.4°
10
Windvlaag: 5.8 m/s
88%
16:00
Voelt als: 5.4°
1013.1 hPa 3.7 mm
82%
5.9°
9
Windvlaag: 4.6 m/s
78%
17:00
Voelt als: 4.4°
1015.0 hPa
29%
4.4°
9
Windvlaag: -1.6 m/s
42%
18:00
Voelt als: 3.6°
1017.1 hPa
14%
3.0°
8
Windvlaag: -2.6 m/s
20%
19:00
Voelt als: 3.4°
1018.8 hPa
15%
1.7°
7
Windvlaag: -2.1 m/s
53%
20:00
Voelt als: 3.2°
1020.2 hPa
16%
0.1°
7
Windvlaag: -1.2 m/s
32%
21:00
Voelt als: 2.8°
1021.2 hPa
14%
-0.7°
7
Windvlaag: -1.7 m/s
21%
22:00
Voelt als: 2.6°
1022.2 hPa
14%
-0.3°
6
Windvlaag: -1.3 m/s
31%
23:00
Voelt als: 2.4°
1022.9 hPa
14%
-0.5°
5
Windvlaag: -0.7 m/s
29%
 07:40     18:12    Daglengte: 10:32 Morgen
00:00
Voelt als: 2.4°
1023.4 hPa
14%
-0.2°
5
Windvlaag: -0.4 m/s
18%
01:00
Voelt als: 2.3°
1023.7 hPa
14%
0.1°
4
Windvlaag: 0.1 m/s
37%
02:00
Voelt als: 2.4°
1023.7 hPa
14%
0.6°
3
Windvlaag: 0.5 m/s
43%
03:00
Voelt als: 2.2°
1023.3 hPa
14%
1.1°
2
Windvlaag: 0.7 m/s
84%
04:00
Voelt als: 2.3°
1022.7 hPa
14%
1.2°
2
Windvlaag: 1 m/s
85%
05:00
Voelt als: 3.0°
1022.3 hPa
20%
1.2°
2
Windvlaag: 1.8 m/s
88%
06:00
Voelt als: 2.7°
1021.6 hPa
29%
1.5°
3
Windvlaag: 2.7 m/s
91%
07:00
Voelt als: 2.3°
1020.5 hPa 2.7 mm
80%
1.6°
3
Windvlaag: 2.7 m/s
91%
08:00
Voelt als: 1.9°
1019.3 hPa 2.8 mm
82%
1.3°
4
Windvlaag: 3.4 m/s
91%
09:00
Voelt als: 1.3°
1017.9 hPa 3.1 mm
82%
0.9°
5
Windvlaag: 4.2 m/s
91%
10:00
Voelt als: 1.1°
1015.8 hPa
82%
0.5°
6
Windvlaag: 4.9 m/s
91%
11:00
Voelt als: 1.4°
1013.4 hPa 3.2 mm
81%
1.6°
7
Windvlaag: 3.9 m/s
91%
12:00
Voelt als: 3.0°
1011.5 hPa 3.2 mm
75%
4.5°
7
Windvlaag: 5.6 m/s
91%
13:00
Voelt als: 5.7°
1009.5 hPa 3.2 mm
82%
7.3°
8
Windvlaag: 6.3 m/s
91%
14:00
10°
Voelt als: 5.9°
1007.9 hPa 3.8 mm
82%
7.7°
10
Windvlaag: 7.1 m/s
91%
15:00
11°
1006.4 hPa 3.9 mm
82%
7.4°
12
Windvlaag: 7.2 m/s
91%
16:00
10°
1005.2 hPa 4.0 mm
82%
7.1°
12
Windvlaag: 7 m/s
91%
17:00
10°
Voelt als: 5.3°
1004.3 hPa 3.9 mm
82%
7.7°
12
Windvlaag: 6.8 m/s
91%
18:00
10°
Voelt als: 5.2°
1003.5 hPa 4.9 mm
79%
7.8°
12
Windvlaag: 6.9 m/s
91%
19:00
10°
Voelt als: 5.5°
1003.1 hPa
27%
7.9°
12
Windvlaag: 6.4 m/s
91%
20:00
10°
Voelt als: 5.6°
1002.6 hPa
81%
8.0°
12
Windvlaag: 6.6 m/s
90%
21:00
10°
Voelt als: 5.9°
1002.2 hPa
82%
8.0°
12
Windvlaag: 7 m/s
90%
22:00
10°
Voelt als: 5.9°
1002.2 hPa
82%
7.7°
11
Windvlaag: 6.3 m/s
87%
23:00
Voelt als: 5.4°
1002.4 hPa
81%
6.9°
10
Windvlaag: 6.3 m/s
61%
 07:38     18:14    Daglengte: 10:36 Dinsdag 25 Feb
00:00
Voelt als: 4.7°
1002.5 hPa
25%
4.6°
9
Windvlaag: 5.1 m/s
74%
01:00
Voelt als: 4.1°
1002.7 hPa
17%
4.6°
9
Windvlaag: 4.1 m/s
51%
02:00
Voelt als: 3.6°
1002.7 hPa
26%
2.1°
8
Windvlaag: 2.9 m/s
27%
03:00
Voelt als: 2.7°
1002.5 hPa
68%
1.4°
9
Windvlaag: 3.1 m/s
33%
04:00
Voelt als: 2.1°
1002.0 hPa
75%
1.1°
9
Windvlaag: 3.1 m/s
43%
05:00
Voelt als: 1.7°
1001.9 hPa
76%
0.5°
9
Windvlaag: 3.3 m/s
17%
06:00
Voelt als: 1.4°
1001.9 hPa
78%
0.7°
9
Windvlaag: 3.1 m/s
12%
07:00
Voelt als: 0.9°
1001.8 hPa
34%
0.5°
9
Windvlaag: 2.3 m/s
15%
08:00
Voelt als: 0.8°
1001.7 hPa
25%
0.5°
9
Windvlaag: 2.2 m/s
16%
09:00
Voelt als: 1.2°
1001.8 hPa
15%
0.7°
9
Windvlaag: 3.2 m/s
17%
10:00
Voelt als: 1.4°
1001.8 hPa 4.5 mm
24%
0.7°
9
Windvlaag: 2.9 m/s
21%
11:00
Voelt als: 1.8°
1001.7 hPa
26%
0.3°
9
Windvlaag: 2.4 m/s
18%
12:00
Voelt als: 2.2°
1001.7 hPa 4.4 mm
25%
-0.3°
9
Windvlaag: 2.6 m/s
27%
13:00
Voelt als: 2.5°
1001.6 hPa 4.7 mm
33%
1.3°
9
Windvlaag: 2.9 m/s
37%
14:00
Voelt als: 2.6°
1000.9 hPa 3.4 mm
100%
0.3°
9
Windvlaag: 3.4 m/s
21%
15:00
Voelt als: 2.9°
1000.2 hPa 4.5 mm
100%
-0.0°
9
Windvlaag: 2.8 m/s
39%
16:00
Voelt als: 3.0°
999.6 hPa
30%
1.3°
8
Windvlaag: 2.9 m/s
23%
17:00
Voelt als: 2.7°
999.0 hPa 4.7 mm
23%
2.3°
7
Windvlaag: 2.6 m/s
49%
18:00
Voelt als: 1.9°
998.2 hPa
24%
2.7°
6
Windvlaag: 2.6 m/s
64%
19:00
Voelt als: 1.6°
997.8 hPa
25%
3.3°
5
Windvlaag: 2.8 m/s
76%
20:00
Voelt als: 1.0°
996.9 hPa 3.6 mm
100%
2.9°
6
Windvlaag: 4 m/s
71%
21:00
Voelt als: 0.6°
995.9 hPa 3.6 mm
100%
2.9°
6
Windvlaag: 3.1 m/s
92%
22:00
Voelt als: 0.4°
994.8 hPa 3.9 mm
100%
3.1°
6
Windvlaag: 3.3 m/s
95%
23:00
Voelt als: 0.5°
993.8 hPa 3.7 mm
100%
3.2°
6
Windvlaag: 2 m/s
95%
 07:36     18:16    Daglengte: 10:40 Woensdag 26 Feb
00:00
Voelt als: -0.3°
993.2 hPa 4.8 mm
99%
2.8°
8
Windvlaag: 1.4 m/s
89%
01:00
Voelt als: -2.0°
993.0 hPa 4.6 mm
100%
1.9°
8
Windvlaag: 0.7 m/s
84%
02:00
Voelt als: -2.4°
993.1 hPa 8.6 mm
100%
1.6°
7
Windvlaag: 0 m/s
77%1 cm
03:00
Voelt als: -1.9°
993.0 hPa 5.5 mm
100%
1.6°
7
Windvlaag: 2 m/s
81%2 cm
04:00
Voelt als: -1.9°
992.9 hPa 5.8 mm
100%
1.4°
7
Windvlaag: 1.2 m/s
90%2 cm
05:00
Voelt als: -2.1°
992.9 hPa 6.0 mm
98%
1.0°
7
Windvlaag: 3 m/s
88%2 cm
06:00
Voelt als: -2.5°
993.0 hPa 6.6 mm
100%
0.5°
6
Windvlaag: 1.1 m/s
94%3 cm
07:00
Voelt als: -2.4°
993.1 hPa 7.0 mm
100%
0.3°
6
Windvlaag: 0.4 m/s
72%5 cm
08:00
Voelt als: -2.0°
993.0 hPa
97%
-0.1°
5
Windvlaag: 10 m/s
72%6 cm
09:00
Voelt als: -1.2°
993.7 hPa
37%
-0.2°
6
Windvlaag: 9.7 m/s
70%6 cm
10:00
Voelt als: -0.7°
994.4 hPa
96%
-0.5°
7
Windvlaag: 10.9 m/s
64%5 cm
11:00
Voelt als: -0.5°
995.2 hPa 12.4 mm
100%
-0.5°
7
Windvlaag: 11.5 m/s
69%5 cm
12:00
Voelt als: -0.0°
995.9 hPa 12.5 mm
100%
-1.0°
8
Windvlaag: 13.3 m/s
64%4 cm
Temp/Neerslag /Baro Onweer/DauwpuntSneeuw
    Temp Baro Neerslag Dauwpunt Wind BewolkingSneeuw  
 07:42     18:10    Daglengte: 10:28 Vandaag
13:00
11°
1008.4 hPa 10.2 mm 8.7°
14
91%
16:00
Voelt als: 5.4°
1013.1 hPa 9.4 mm 5.9°
9
78%
19:00
Voelt als: 3.4°
1018.8 hPa   1.7°
7
53%
22:00
Voelt als: 2.6°
1022.2 hPa   -0.3°
6
31%
 07:40     18:12    Daglengte: 10:32 Morgen
01:00
Voelt als: 2.3°
1023.7 hPa   0.1°
4
37%
04:00
Voelt als: 2.3°
1022.7 hPa   1.2°
2
85%
07:00
Voelt als: 2.3°
1020.5 hPa 2.7 mm 1.6°
3
91%
10:00
Voelt als: 1.1°
1015.8 hPa 5.8 mm 0.5°
6
91%
13:00
Voelt als: 5.7°
1009.5 hPa 9.5 mm 7.3°
8
91%
16:00
10°
1005.2 hPa 11.7 mm 7.1°
12
91%
19:00
10°
Voelt als: 5.5°
1003.1 hPa 8.8 mm 7.9°
12
91%
22:00
10°
Voelt als: 5.9°
1002.2 hPa   7.7°
11
87%
 07:38     18:14    Daglengte: 10:36 Dinsdag 25 Feb
01:00
Voelt als: 4.1°
1002.7 hPa   4.6°
9
51%
04:00
Voelt als: 2.1°
1002.0 hPa   1.1°
9
43%
07:00
Voelt als: 0.9°
1001.8 hPa   0.5°
9
15%
10:00
Voelt als: 1.4°
1001.8 hPa 4.5 mm 0.7°
9
21%
13:00
Voelt als: 2.5°
1001.6 hPa 9.1 mm 1.3°
9
37%
16:00
Voelt als: 3.0°
999.6 hPa 7.9 mm 1.3°
8
23%
19:00
Voelt als: 1.6°
997.8 hPa 4.7 mm 3.3°
5
76%
22:00
Voelt als: 0.4°
994.8 hPa 11.1 mm 3.1°
6
95%
 07:36     18:16    Daglengte: 10:40 Woensdag 26 Feb
01:00
Voelt als: -2.0°
993.0 hPa 13.0 mm 1.9°
8
84%
04:00
Voelt als: -1.9°
992.9 hPa 19.9 mm 1.4°
7
90%2 cm
07:00
Voelt als: -2.4°
993.1 hPa 19.6 mm 0.3°
6
72%5 cm
10:00
Voelt als: -0.7°
994.4 hPa   -0.5°
7
64%5 cm
13:00
Voelt als: 0.4°
996.7 hPa 37.3 mm -1.4°
8
59%4 cm
16:00
Voelt als: 0.1°
999.2 hPa 38.6 mm -1.5°
6
67%
19:00
Voelt als: -0.1°
1000.4 hPa 38.6 mm -1.6°
5
73%
22:00
Voelt als: -0.2°
1002.0 hPa 38.9 mm -0.8°
5
57%
 07:33     18:18    Daglengte: 10:45 Donderdag 27 Feb
01:00
Voelt als: -0.3°
1003.5 hPa 39.0 mm -0.0°
5
41%
04:00
Voelt als: -0.8°
1004.4 hPa 39.1 mm -0.2°
5
30%
07:00
Voelt als: -1.5°
1005.0 hPa 39.1 mm -0.3°
5
20%
10:00
Voelt als: 0.0°
1005.9 hPa 39.2 mm -0.4°
6
28%
13:00
Voelt als: 1.5°
1006.6 hPa 43.9 mm -0.4°
7
36%
16:00
Voelt als: -0.1°
1005.5 hPa 47.5 mm -0.1°
5
62%
19:00
Voelt als: -1.9°
1005.0 hPa 47.8 mm -0.7°
3
88%
22:00
Voelt als: -1.6°
1004.3 hPa 47.9 mm -1.0°
3
90%
 07:31     18:19    Daglengte: 10:48 Vrijdag 28 Feb
01:00
Voelt als: -0.9°
1003.4 hPa 47.9 mm -1.0°
3
92%
04:00
Voelt als: -1.0°
1002.2 hPa 47.9 mm 0.1°
4
89%
07:00
Voelt als: -1.0°
1001.0 hPa 47.9 mm 1.3°
4
86%
10:00
Voelt als: 2.1°
1000.9 hPa 47.9 mm 3.2°
5
89%
13:00
Voelt als: 5.5°
1000.7 hPa 48.0 mm 5.0°
7
92%
16:00
Voelt als: 5.9°
997.2 hPa 48.0 mm 6.5°
7
92%
19:00
Voelt als: 6.1°
993.5 hPa 48.0 mm 8.0°
7
92%
22:00
10°
Voelt als: 6.2°
990.0 hPa 50.2 mm 8.1°
9
79%
 07:29     18:21    Daglengte: 10:52 Zaterdag 29 Feb
01:00
11°
986.6 hPa 54.8 mm 8.2°
11
66%
04:00
Voelt als: 3.6°
984.3 hPa 55.1 mm 5.8°
12
78%
07:00
Voelt als: 0.5°
982.1 hPa 55.4 mm 3.5°
14
90%
10:00
Voelt als: 1.3°
985.3 hPa 56.1 mm 1.4°
13
63%
13:00
Voelt als: 2.0°
988.6 hPa 56.5 mm -1.3°
12
37%
16:00
Voelt als: 1.0°
989.1 hPa 59.7 mm -1.8°
10
64%
19:00
Voelt als: 0.4°
989.7 hPa 62.9 mm -2.7°
8
91%
22:00
Voelt als: -1.2°
993.2 hPa 63.1 mm -0.9°
8
64%
 07:27     18:23    Daglengte: 10:56 Zondag 01 Maa
01:00
Voelt als: -2.8°
996.8 hPa 63.3 mm 0.4°
8
37%
04:00
Voelt als: -2.2°
999.7 hPa 63.3 mm -1.9°
7
29%
07:00
Voelt als: -1.7°
1002.5 hPa 63.5 mm -4.6°
7
21%
10:00
Voelt als: -0.2°
1005.0 hPa   -3.0°
8
49%
13:00
Voelt als: 1.7°
1007.6 hPa 129.0 mm -1.5°
9
76%
19:00
Voelt als: 0.8°
1008.3 hPa 133.5 mm -2.4°
7
45%
 07:25     18:25    Daglengte: 11:00 Maandag 02 Maa
01:00
Voelt als: -0.2°
1007.6 hPa 134.5 mm 2.4°
6
92%
07:00
Voelt als: -0.6°
1007.0 hPa 135.6 mm 1.4°
4
78%
13:00
Voelt als: 5.4°
1005.8 hPa 137.1 mm 0.9°
3
44%
19:00
Voelt als: 2.6°
1003.4 hPa 137.9 mm 0.8°
3
92%
 07:22     18:27    Daglengte: 11:05 Dinsdag 03 Maa
01:00
Voelt als: -2.2°
999.9 hPa 138.1 mm -1.0°
3
78%
07:00
Voelt als: -1.4°
995.8 hPa 138.1 mm 0.2°
4
92%
13:00
Voelt als: 4.7°
992.8 hPa 138.1 mm 2.4°
6
92%
19:00
Voelt als: 1.5°
991.2 hPa 138.2 mm 2.7°
5
90%
 07:20     18:28    Daglengte: 11:08 Woensdag 04 Maa
01:00
Voelt als: -4.8°
991.0 hPa 140.1 mm -0.2°
9
1%
07:00
Voelt als: 1.2°
999.4 hPa 1.1 mm 1.0°
3
55%
13:00
Voelt als: 4.0°
1001.3 hPa 0.9 mm 1.6°
3
60%
19:00
Voelt als: 4.0°
1001.9 hPa 0.9 mm 2.0°
2
56%
 07:18     18:30    Daglengte: 11:12 Donderdag 05 Maa
01:00
Voelt als: 2.9°
1002.5 hPa 1.3 mm 1.8°
2
52%
07:00
Voelt als: 1.3°
1003.4 hPa 1.6 mm 1.1°
3
57%
13:00
Voelt als: 3.5°
1005.7 hPa 1.0 mm 1.8°
5
55%
19:00
Voelt als: 2.7°
1006.8 hPa 0.9 mm 1.7°
4
55%
 07:16     18:32    Daglengte: 11:16 Vrijdag 06 Maa
01:00
Voelt als: 1.5°
1007.2 hPa 0.6 mm 2.0°
5
53%
07:00
Voelt als: 1.0°
1006.3 hPa 1.2 mm 1.5°
4
54%
13:00
Voelt als: 4.4°
1006.3 hPa 1.5 mm 2.5°
5
62%
19:00
Voelt als: 3.7°
1006.2 hPa 1.6 mm 1.7°
3
60%
 07:13     18:34    Daglengte: 11:21 Zaterdag 07 Maa
01:00
Voelt als: 1.9°
1006.4 hPa 1.7 mm 1.8°
4
62%
07:00
Voelt als: 1.4°
1007.5 hPa 1.3 mm 2.1°
5
55%
13:00
Voelt als: 3.9°
1011.0 hPa 0.8 mm 2.1°
6
61%
19:00
Voelt als: 2.9°
1012.9 hPa 0.8 mm 2.0°
5
54%
 07:11     18:35    Daglengte: 11:24 Zondag 08 Maa
01:00
Voelt als: 1.7°
1014.5 hPa 0.6 mm 1.8°
5
50%
07:00
Voelt als: 1.9°
1012.7 hPa 1.6 mm 1.9°
3
53%
13:00
Voelt als: 4.6°
1011.6 hPa 1.2 mm 2.4°
4
53%
19:00
Voelt als: 3.7°
1010.7 hPa 1.4 mm 2.5°
4
60%
 07:09     18:37    Daglengte: 11:28 Maandag 09 Maa
01:00
Voelt als: 2.0°
1011.7 hPa 1.2 mm 2.4°
4
62%
07:00
Voelt als: 1.7°
1012.3 hPa 0.6 mm 1.8°
3
48%
  CAPE Lifted Index Hail Supercell Tornado SRH 3km CL BTM PRES CL TOP PRES Swiss DWD icon SMHI TS
 07:42     18:10    Daglengte: 10:28 Vandaag
13:00 0 J/kg 7.2 K 0 % 0 % 0 % 0 m²/s² 0 0 7.5 3
14:00 77 J/kg 8.8 K 0 % 0 % 0 % 0 m²/s² 0 0 9.97 80
15:00 100 J/kg 11.5 K 0 % 0 % 0 % 0 m²/s² 0 0 15.85 61
16:00 68 J/kg 13.7 K 0 % 0 % 0 % 0 m²/s² 0 0 20.27 61
17:00 0 J/kg 17.1 K 0 % 0 % 0 % 0 m²/s² 0 0 22.44 3
18:00 1 J/kg 18.6 K 0 % 0 % 0 % 0 m²/s² 0 0 24.75 1
19:00 77 J/kg 16.8 K 0 % 0 % 0 % 0 m²/s² 0 0 23.79 3
20:00 28 J/kg 18.1 K 0 % 0 % 0 % 0 m²/s² 0 0 26.17 3
21:00 0 J/kg 18.9 K 0 % 0 % 0 % 0 m²/s² 0 0 26.64 3
22:00 0 J/kg 19.1 K 0 % 0 % 0 % 0 m²/s² 0 0 25.82 3
23:00 0 J/kg 19.4 K 0 % 0 % 0 % 0 m²/s² 0 0 25.34 3
 07:40     18:12    Daglengte: 10:32 Morgen
00:00 0 J/kg 19.6 K 0 % 0 % 0 % 0 m²/s² 0 0 24.64 3
01:00 0 J/kg 19.7 K 0 % 0 % 0 % 0 m²/s² 0 0 23.24 3
02:00 0 J/kg 19.3 K 0 % 0 % 0 % 0 m²/s² 0 0 21.79 3
03:00 0 J/kg 18.6 K 0 % 0 % 0 % 0 m²/s² 0 0 20.37 3
04:00 0 J/kg 18.6 K 0 % 0 % 0 % 0 m²/s² 0 0 19.5 3
05:00 0 J/kg 18.5 K 0 % 0 % 0 % 0 m²/s² 0 0 18.74 3
06:00 0 J/kg 16.0 K 0 % 0 % 0 % 0 m²/s² 0 0 16.33 3
07:00 0 J/kg 14.0 K 0 % 0 % 0 % 0 m²/s² 0 0 14.63 61
08:00 0 J/kg 11.0 K 0 % 0 % 0 % 0 m²/s² 0 0 12.5 61
09:00 0 J/kg 9.1 K 0 % 0 % 0 % 0 m²/s² 0 0 10.33 61
10:00 0 J/kg 6.5 K 0 % 0 % 0 % 0 m²/s² 0 0 9.26 3
11:00 0 J/kg 5.3 K 0 % 0 % 0 % 0 m²/s² 0 0 10.07 3
12:00 0 J/kg 9.7 K 0 % 0 % 0 % 0 m²/s² 0 0 14.74 3
13:00 6 J/kg 9.6 K 0 % 0 % 0 % 0 m²/s² 0 0 14.07 3
14:00 7 J/kg 9.5 K 0 % 0 % 0 % 0 m²/s² 0 0 12.2 61
15:00 9 J/kg 7.7 K 0 % 0 % 0 % 0 m²/s² 0 0 8.03 63
16:00 5 J/kg 7.3 K 0 % 0 % 0 % 0 m²/s² 0 0 7.42 61
17:00 0 J/kg 6.9 K 0 % 0 % 0 % 0 m²/s² 0 0 7.08 61
18:00 0 J/kg 7.5 K 0 % 0 % 0 % 0 m²/s² 0 0 7.68 3
19:00 0 J/kg 6.6 K 0 % 0 % 0 % 0 m²/s² 0 0 6.84 3
20:00 0 J/kg 5.4 K 0 % 0 % 0 % 0 m²/s² 0 0 6.78 3
21:00 26 J/kg 4.0 K 0 % 0 % 0 % 0 m²/s² 0 0 13.3 3
22:00 67 J/kg 4.9 K 0 % 0 % 0 % 0 m²/s² 0 0 13.81 3
23:00 30 J/kg 7.5 K 0 % 0 % 0 % 0 m²/s² 0 0 15.99 2
 07:38     18:14    Daglengte: 10:36 Dinsdag 25 Feb
00:00 15 J/kg 9.1 K 0 % 0 % 0 % 0 m²/s² 0 0 17.17 2
01:00 20 J/kg 9.9 K 0 % 0 % 0 % 0 m²/s² 0 0 17.91 3
02:00 10 J/kg 10.3 K 0 % 0 % 0 % 0 m²/s² 0 0 18.28 3
03:00 24 J/kg 9.7 K 0 % 0 % 0 % 0 m²/s² 0 0 17.29 3
04:00 33 J/kg 9.6 K 0 % 0 % 0 % 0 m²/s² 0 0 16.35 3
05:00 19 J/kg 10.3 K 0 % 0 % 0 % 0 m²/s² 0 0 15.7 2
06:00 28 J/kg 9.3 K 0 % 0 % 0 % 0 m²/s² 0 0 12.99 2
07:00 41 J/kg 8.3 K 0 % 0 % 0 % 0 m²/s² 0 0 10.97 2
08:00 77 J/kg 7.5 K 0 % 0 % 0 % 0 m²/s² 0 0 11.22 2
09:00 78 J/kg 5.9 K 0 % 0 % 0 % 0 m²/s² 0 0 8.96 2
10:00 87 J/kg 5.1 K 0 % 0 % 0 % 0 m²/s² 0 0 8.31 2
11:00 87 J/kg 4.5 K 0 % 0 % 0 % 0 m²/s² 0 0 7.47 2
12:00 146 J/kg 3.6 K 0 % 0 % 0 % 0 m²/s² 0 0 5.85 2
13:00 211 J/kg 3.0 K 0 % 0 % 0 % 0 m²/s² 0 0 4.95 2
14:00 144 J/kg 3.0 K 0 % 0 % 0 % 0 m²/s² 0 0 5.58 2
15:00 169 J/kg 1.9 K 0 % 0 % 0 % 0 m²/s² 0 0 5.11 2
16:00 147 J/kg 1.2 K 0 % 0 % 0 % 0 m²/s² 0 0 3.99 1
17:00 182 J/kg 0.5 K 0 % 0 % 0 % 0 m²/s² 0 0 2.81 1
18:00 151 J/kg 0.5 K 0 % 0 % 0 % 0 m²/s² 0 0 2.75 0
19:00 291 J/kg -0.8 K 0 % 0 % 0 % 0 m²/s² 0 0 1.51 3
20:00 156 J/kg -0.1 K 0 % 0 % 0 % 0 m²/s² 0 0 3.02 80
21:00 48 J/kg -0.7 K 0 % 0 % 0 % 0 m²/s² 0 0 2.3 80
22:00 49 J/kg 0.0 K 0 % 0 % 0 % 0 m²/s² 0 0 2.55 80
23:00 76 J/kg -0.5 K 0 % 0 % 0 % 0 m²/s² 0 0 1.21 80
 07:36     18:16    Daglengte: 10:40 Woensdag 26 Feb
00:00 41 J/kg 0.5 K 0 % 0 % 0 % 0 m²/s² 0 0 1.22 3
01:00 0 J/kg 1.0 K 0 % 0 % 0 % 0 m²/s² 0 0 1.57 80
02:00 0 J/kg 0.3 K 0 % 0 % 0 % 0 m²/s² 0 0 0.96 85
03:00 164 J/kg -0.7 K 0 % 0 % 0 % 0 m²/s² 0 0 -0.16 3
04:00 69 J/kg 0.2 K 0 % 0 % 0 % 0 m²/s² 0 0 1.01 85
05:00 33 J/kg 0.4 K 0 % 0 % 0 % 0 m²/s² 0 0 1.12 85
06:00 1 J/kg 0.8 K 0 % 0 % 0 % 0 m²/s² 0 0 1.4 85
07:00 1 J/kg 1.4 K 0 % 0 % 0 % 0 m²/s² 0 0 1.97 85
08:00 0 J/kg -0.8 K 0 % 0 % 0 % 0 m²/s² 0 0 -0.29 85
09:00 340 J/kg -1.4 K 0 % 0 % 0 % 0 m²/s² 0 0 -0.2 3
10:00 274 J/kg -1.3 K 0 % 0 % 0 % 0 m²/s² 0 0 1.52 3
11:00 408 J/kg -2.0 K 0 % 0 % 0 % 0 m²/s² 0 0 -1.52 85
12:00 349 J/kg -1.9 K 0 % 0 % 0 % 0 m²/s² 0 0 -0.25 85
Temp Baro Wind Neerslag
  EWN Forecast EWN WRFDA DWD ICON FMI HIRLAM MET Norway GFS
 07:42     18:10    Daglengte: 10:28 Vandaag
13:00 10.9° 1008.4 hPa 13.8 m/s 10.2 mm 11.1° 1008.2 hPa 12.0 m/s 11.8 mm 10.7° 1008.6 hPa 10.9 m/s 8.0 mm 10.8° 1008.4 hPa 17.0 m/s 0.0 mm 12.0° 1008.1 hPa 13.3 m/s 12.2° 1009.2 hPa 15.8 m/s
16:00 9.2° 1013.1 hPa 8.8 m/s 9.4 mm 9.8° 1011.4 hPa 8.9 m/s 38.4 mm 9.0° 1012.9 hPa 7.3 m/s 1.7 mm 9.8° 1012.7 hPa 10.2 m/s 0.0 mm 9.1° 1013.9 hPa 8.5 m/s 10.5° 1012.4 hPa 11.2 m/s
19:00 7.3° 1018.8 hPa 7.1 m/s 0.0 mm 7.3° 1017.4 hPa 6.4 m/s 39.1 mm 7.5° 1018.1 hPa 4.9 m/s 0.0 mm 8.1° 1018.8 hPa 9.1 m/s 0.0 mm 7.3° 1019.4 hPa 7.5 m/s 7.0° 1019.0 hPa 7.8 m/s
22:00 6.3° 1022.2 hPa 6.0 m/s 0.0 mm 6.1° 1020.2 hPa 5.6 m/s 39.1 mm 6.9° 1021.2 hPa 4.2 m/s 0.0 mm 6.8° 1022.6 hPa 6.6 m/s 0.0 mm 6.3° 1022.4 hPa 6.1 m/s 6.5° 1022.6 hPa 6.1 m/s
 07:40     18:12    Daglengte: 10:32 Morgen
01:00 5.2° 1023.7 hPa 3.8 m/s 0.0 mm 4.8° 1021.9 hPa 3.4 m/s 39.1 mm 6.1° 1021.9 hPa 2.8 m/s 0.0 mm 6.1° 1024.1 hPa 4.2 m/s 0.0 mm 4.9° 1024.1 hPa 3.8 m/s 5.3° 1024.6 hPa 4.0 m/s
04:00 4.2° 1022.7 hPa 2.2 m/s 0.0 mm 4.2° 1020.4 hPa 2.6 m/s 39.1 mm 5.8° 1021.4 hPa 2.2 m/s 0.0 mm 4.9° 1023.2 hPa 1.9 m/s 0.0 mm 3.2° 1023.2 hPa 2.0 m/s 4.4° 1023.0 hPa 2.0 m/s
07:00 4.9° 1020.5 hPa 3.2 m/s 2.7 mm 4.9° 1019.4 hPa 3.1 m/s 39.1 mm 5.5° 1018.3 hPa 3.2 m/s 0.1 mm 6.1° 1021.5 hPa 3.3 m/s 0.0 mm 4.7° 1021.1 hPa 3.1 m/s 4.3° 1020.9 hPa 3.3 m/s
10:00 5.2° 1015.8 hPa 6.3 m/s 5.8 mm 3.9° 1013.9 hPa 6.9 m/s 40.5 mm 5.4° 1012.7 hPa 4.4 m/s 0.4 mm 6.1° 1017.5 hPa 7.0 m/s 0.0 mm 5.5° 1016.3 hPa 6.1 m/s 4.6° 1015.3 hPa 6.5 m/s
13:00 9.3° 1009.5 hPa 8.2 m/s 9.5 mm 9.6° 1007.8 hPa 7.5 m/s 43.2 mm 9.6° 1007.8 hPa 9.1 m/s 0.1 mm 7.7° 1010.6 hPa 9.0 m/s 0.0 mm 10.7° 1010.2 hPa 8.1 m/s 9.9° 1009.6 hPa 8.6 m/s
16:00 10.2° 1005.2 hPa 12.0 m/s 11.7 mm 9.5° 1003.2 hPa 11.4 m/s 45.6 mm 9.4° 1003.6 hPa 9.6 m/s 7.8 mm 11.0° 1006.1 hPa 14.3 m/s 0.0 mm 10.9° 1005.6 hPa 11.7 m/s 10.2° 1004.2 hPa 12.1 m/s
19:00 9.8° 1003.1 hPa 12.0 m/s 8.8 mm 9.4° 1000.5 hPa 12.8 m/s 59.0 mm 9.8° 1002.2 hPa 9.0 m/s 0.7 mm 9.9° 1003.4 hPa 14.4 m/s 0.0 mm 9.9° 1003.3 hPa 11.2 m/s 9.8° 1001.8 hPa 12.9 m/s
22:00 10.0° 1002.2 hPa 11.2 m/s 0.0 mm 9.5° 999.4 hPa 11.7 m/s 64.2 mm 9.4° 1001.3 hPa 8.1 m/s 0.2 mm 10.9° 1002.2 hPa 13.2 m/s 0.0 mm 10.4° 1002.6 hPa 10.5 m/s 9.7° 1001.3 hPa 11.0 m/s
 07:38     18:14    Daglengte: 10:36 Dinsdag 25 Feb
01:00 8.2° 1002.7 hPa 8.9 m/s 0.0 mm 6.8° 1000.6 hPa 9.6 m/s 64.4 mm 7.8° 1002.0 hPa 8.3 m/s 0.1 mm 9.8° 1002.6 hPa 9.9 m/s 0.0 mm 8.2° 1003.1 hPa 7.4 m/s 7.2° 1002.5 hPa 10.8 m/s
04:00 6.6° 1002.0 hPa 8.8 m/s 0.0 mm 5.8° 999.4 hPa 9.5 m/s 64.4 mm 6.9° 1001.1 hPa 8.7 m/s 0.1 mm 8.0° 1002.0 hPa 9.1 m/s 0.0 mm 6.5° 1002.4 hPa 7.6 m/s 6.2° 1002.7 hPa 9.6 m/s
07:00 5.7° 1001.8 hPa 8.6 m/s 0.0 mm 5.2° 999.1 hPa 9.8 m/s 64.4 mm 5.5° 1001.5 hPa 8.7 m/s 0.1 mm 7.2° 1001.7 hPa 8.7 m/s 0.0 mm 5.5° 1002.1 hPa 6.8 m/s 5.8° 1002.6 hPa 9.1 m/s
10:00 6.3° 1001.8 hPa 9.3 m/s 4.5 mm 5.9° 999.1 hPa 12.1 m/s 64.4 mm 6.3° 1002.8 hPa 8.9 m/s 0.0 mm 6.6° 1001.9 hPa 8.7 m/s 6.2° 1002.1 hPa 10.7 m/s
13:00 7.0° 1001.6 hPa 9.1 m/s 9.1 mm 6.5° 999.0 hPa 11.8 m/s 64.6 mm 7.0° 1003.8 hPa 8.2 m/s 0.0 mm 7.5° 1001.4 hPa 8.7 m/s 6.9° 1001.9 hPa 10.5 m/s
16:00 7.2° 999.6 hPa 7.9 m/s 7.9 mm 7.0° 997.5 hPa 10.9 m/s 64.9 mm 7.4° 1002.8 hPa 7.5 m/s 0.2 mm 7.2° 999.2 hPa 7.3 m/s 6.8° 1000.2 hPa 9.0 m/s
19:00 5.3° 997.8 hPa 5.3 m/s 4.7 mm 6.1° 995.6 hPa 7.5 m/s 65.0 mm 6.0° 1000.3 hPa 4.6 m/s 0.0 mm 4.9° 997.4 hPa 5.1 m/s 5.5° 998.7 hPa 6.0 m/s
22:00 4.6° 994.8 hPa 6.1 m/s 11.1 mm 4.5° 991.9 hPa 5.9 m/s 65.1 mm 5.0° 995.9 hPa 7.4 m/s 2.2 mm 4.3° 994.5 hPa 5.4 m/s 4.9° 995.2 hPa 3.6 m/s
 07:36     18:16    Daglengte: 10:40 Woensdag 26 Feb
01:00 3.3° 993.0 hPa 7.9 m/s 13.0 mm 3.0° 988.3 hPa 5.9 m/s 65.3 mm 3.8° 995.3 hPa 6.4 m/s 0.8 mm 2.9° 992.4 hPa 8.3 m/s 2.4° 992.2 hPa 4.5 m/s
04:00 3.2° 992.9 hPa 7.1 m/s 19.9 mm 3.4° 986.6 hPa 9.6 m/s 77.5 mm 3.1° 994.0 hPa 5.7 m/s 1.3 mm 2.5° 992.5 hPa 6.9 m/s 2.3° 991.0 hPa 11.1 m/s
07:00 2.3° 993.1 hPa 5.8 m/s 19.6 mm 1.3° 988.6 hPa 6.4 m/s 91.3 mm 2.1° 993.7 hPa 4.9 m/s 1.1 mm 2.2° 992.6 hPa 5.4 m/s 2.3° 992.0 hPa 5.7 m/s
10:00 4.0° 994.4 hPa 6.7 m/s 0.0 mm 5.5° 992.8 hPa 7.0 m/s 106.7 mm 3.9° 994.6 hPa 5.5 m/s 0.1 mm 3.8° 994.6 hPa 6.9 m/s 4.7° 996.1 hPa 5.4 m/s
13:00 5.3° 996.7 hPa 8.3 m/s 37.3 mm 6.0° 997.4 hPa 9.5 m/s 110.8 mm 4.7° 996.7 hPa 7.6 m/s 0.5 mm 5.3° 996.6 hPa 8.3 m/s 6.5° 1000.8 hPa 7.8 m/s
16:00 4.5° 999.2 hPa 6.4 m/s 38.6 mm 4.4° 998.8 hPa 6.2 m/s 5.7° 1003.5 hPa 7.8 m/s 38.6 mm
19:00 3.9° 1000.4 hPa 5.2 m/s 38.6 mm 3.9° 999.9 hPa 5.2 m/s 4.5° 1005.8 hPa 5.4 m/s 38.6 mm
22:00 3.9° 1002.0 hPa 5.3 m/s 38.9 mm 3.8° 1001.5 hPa 5.2 m/s 4.4° 1008.1 hPa 5.4 m/s 38.9 mm
 07:33     18:18    Daglengte: 10:45 Donderdag 27 Feb
01:00 3.8° 1003.5 hPa 5.3 m/s 39.0 mm 3.8° 1003.0 hPa 5.3 m/s 3.8° 1009.1 hPa 4.9 m/s 39.0 mm
04:00 3.3° 1004.4 hPa 5.1 m/s 39.1 mm 3.3° 1004.0 hPa 5.2 m/s 3.2° 1008.8 hPa 3.3 m/s 39.1 mm
07:00 2.8° 1005.0 hPa 5.2 m/s 39.1 mm 2.8° 1004.9 hPa 5.2 m/s 2.6° 1006.5 hPa 5.2 m/s 39.1 mm
10:00 4.3° 1005.9 hPa 6.0 m/s 39.2 mm 4.4° 1006.3 hPa 5.8 m/s 2.8° 1001.7 hPa 7.7 m/s 39.2 mm
13:00 5.7° 1006.6 hPa 6.8 m/s 43.9 mm 6.1° 1007.7 hPa 6.5 m/s 1.8° 993.9 hPa 10.1 m/s 43.9 mm
16:00 3.8° 1005.5 hPa 4.8 m/s 47.5 mm 3.4° 1007.2 hPa 4.5 m/s 7.8° 987.5 hPa 7.7 m/s 47.5 mm
19:00 1.5° 1005.0 hPa 3.2 m/s 47.8 mm 0.8° 1006.6 hPa 2.6 m/s 9.2° 987.6 hPa 10.3 m/s 47.8 mm
22:00 1.7° 1004.3 hPa 3.2 m/s 47.9 mm 1.4° 1005.2 hPa 2.5 m/s 5.5° 993.4 hPa 10.8 m/s 47.9 mm
 07:31     18:19    Daglengte: 10:48 Vrijdag 28 Feb
01:00 2.3° 1003.4 hPa 3.1 m/s 47.9 mm 2.0° 1003.9 hPa 2.5 m/s 5.1° 997.9 hPa 9.9 m/s 47.9 mm
04:00 2.5° 1002.2 hPa 3.6 m/s 47.9 mm 2.3° 1002.4 hPa 3.2 m/s 4.4° 1000.6 hPa 8.0 m/s 47.9 mm
07:00 2.7° 1001.0 hPa 4.1 m/s 47.9 mm 2.6° 1000.9 hPa 4.0 m/s 3.9° 1002.6 hPa 5.2 m/s 47.9 mm
10:00 5.8° 1000.9 hPa 5.4 m/s 47.9 mm 5.8° 1000.6 hPa 5.5 m/s 5.7° 1003.7 hPa 3.9 m/s 47.9 mm
13:00 8.8° 1000.7 hPa 6.9 m/s 48.0 mm 9.0° 1000.4 hPa 7.1 m/s 7.2° 1003.5 hPa 4.7 m/s 48.0 mm
16:00 9.2° 997.2 hPa 7.0 m/s 48.0 mm 9.3° 996.8 hPa 7.2 m/s 7.7° 1001.1 hPa 5.1 m/s 48.0 mm
19:00 9.4° 993.5 hPa 7.1 m/s 48.0 mm 9.7° 993.2 hPa 7.3 m/s 5.7° 996.9 hPa 4.8 m/s 48.0 mm
22:00 9.9° 990.0 hPa 9.3 m/s 50.2 mm 10.3° 989.9 hPa 9.6 m/s 4.8° 991.2 hPa 5.7 m/s 50.2 mm
 07:29     18:21    Daglengte: 10:52 Zaterdag 29 Feb
01:00 10.5° 986.6 hPa 11.1 m/s 54.8 mm 11.0° 986.6 hPa 11.9 m/s 5.4° 986.5 hPa 1.9 m/s 54.8 mm
04:00 8.4° 984.3 hPa 12.3 m/s 55.1 mm 8.7° 984.3 hPa 13.2 m/s 5.3° 984.4 hPa 2.0 m/s 55.1 mm
07:00 6.3° 982.1 hPa 13.6 m/s 55.4 mm 6.3° 982.0 hPa 14.5 m/s 6.2° 983.1 hPa 3.2 m/s 55.4 mm
10:00 6.8° 985.3 hPa 12.8 m/s 56.1 mm 6.8° 985.5 hPa 13.4 m/s 6.9° 982.7 hPa 6.2 m/s 56.1 mm
13:00 7.1° 988.6 hPa 12.0 m/s 56.5 mm 7.2° 989.0 hPa 12.3 m/s 6.5° 984.1 hPa 9.0 m/s 56.5 mm
16:00 6.1° 989.1 hPa 10.0 m/s 59.7 mm 6.2° 989.4 hPa 10.4 m/s 4.7° 986.7 hPa 6.2 m/s 59.7 mm
19:00 5.2° 989.7 hPa 8.0 m/s 62.9 mm 5.2° 989.7 hPa 8.4 m/s 4.7° 989.4 hPa 3.5 m/s 62.9 mm
22:00 3.9° 993.2 hPa 7.9 m/s 63.1 mm 3.9° 993.4 hPa 8.2 m/s 4.5° 992.0 hPa 4.8 m/s 63.1 mm
 07:27     18:23    Daglengte: 10:56 Zondag 01 Maa
01:00 2.7° 996.8 hPa 7.8 m/s 63.3 mm 2.5° 997.0 hPa 7.9 m/s 4.5° 994.1 hPa 6.7 m/s 63.3 mm
04:00 3.0° 999.7 hPa 7.4 m/s 63.3 mm 3.0° 1000.0 hPa 7.3 m/s 3.3° 995.8 hPa 7.5 m/s 63.3 mm
07:00 3.3° 1002.5 hPa 7.0 m/s 63.5 mm 3.4° 1003.1 hPa 6.8 m/s 1.7° 995.7 hPa 9.1 m/s 63.5 mm
10:00 4.7° 1005.0 hPa 8.0 m/s 63.9 mm 5.0° 1005.9 hPa 7.6 m/s 1.0° 995.7 hPa 12.5 m/s 63.9 mm
13:00 6.3° 1007.6 hPa 8.6 m/s 65.1 mm 6.7° 1008.6 hPa 8.4 m/s 1.9° 996.5 hPa 10.4 m/s 65.1 mm
19:00 5.3° 1008.3 hPa 7.3 m/s 66.9 mm 5.4° 1009.2 hPa 7.3 m/s 3.8° 998.5 hPa 6.9 m/s 66.9 mm
 07:25     18:25    Daglengte: 11:00 Maandag 02 Maa
01:00 4.2° 1007.6 hPa 6.3 m/s 67.3 mm 4.3° 1008.3 hPa 6.3 m/s 3.7° 999.8 hPa 6.5 m/s 67.3 mm
07:00 2.8° 1007.0 hPa 3.7 m/s 67.9 mm 2.8° 1007.6 hPa 3.6 m/s 3.3° 1000.9 hPa 5.4 m/s 67.9 mm
13:00 7.4° 1005.8 hPa 3.0 m/s 68.7 mm 7.6° 1006.0 hPa 2.6 m/s 5.4° 1003.8 hPa 7.1 m/s 68.7 mm
19:00 4.7° 1003.4 hPa 2.5 m/s 69.0 mm 4.9° 1003.1 hPa 2.3 m/s 3.1° 1006.6 hPa 4.9 m/s 69.0 mm
 07:22     18:27    Daglengte: 11:05 Dinsdag 03 Maa
01:00 1.4° 999.9 hPa 3.5 m/s 69.0 mm 1.3° 999.0 hPa 3.6 m/s 2.2° 1009.5 hPa 2.1 m/s 69.0 mm
07:00 2.3° 995.8 hPa 3.8 m/s 69.0 mm 2.4° 994.6 hPa 3.9 m/s 0.8° 1009.5 hPa 2.5 m/s 69.0 mm
13:00 7.9° 992.8 hPa 5.6 m/s 69.1 mm 8.0° 991.6 hPa 5.7 m/s 6.5° 1005.8 hPa 4.6 m/s 69.1 mm
19:00 5.2° 991.2 hPa 5.3 m/s 69.1 mm 5.3° 990.6 hPa 5.2 m/s 4.3° 998.0 hPa 6.9 m/s 69.1 mm
 07:20     18:28    Daglengte: 11:08 Woensdag 04 Maa
01:00 1.5° 991.0 hPa 9.0 m/s 70.7 mm 1.5° 991.0 hPa 9.0 m/s 70.7 mm
07:00 3.6° 999.4 hPa 2.6 m/s 1.1 mm
13:00 6.5° 1001.3 hPa 3.5 m/s 0.9 mm
19:00 5.7° 1001.9 hPa 2.2 m/s 0.9 mm
 07:18     18:30    Daglengte: 11:12 Donderdag 05 Maa
01:00 4.8° 1002.5 hPa 2.2 m/s 1.3 mm
07:00 4.1° 1003.4 hPa 3.2 m/s 1.6 mm
13:00 6.8° 1005.7 hPa 5.1 m/s 1.0 mm
19:00 5.7° 1006.8 hPa 4.1 m/s 0.9 mm
 07:16     18:32    Daglengte: 11:16 Vrijdag 06 Maa
01:00 5.1° 1007.2 hPa 4.9 m/s 0.6 mm
07:00 4.4° 1006.3 hPa 4.3 m/s 1.2 mm
13:00 7.3° 1006.3 hPa 4.7 m/s 1.5 mm
19:00 6.0° 1006.2 hPa 2.9 m/s 1.6 mm
 07:13     18:34    Daglengte: 11:21 Zaterdag 07 Maa
01:00 5.1° 1006.4 hPa 4.1 m/s 1.7 mm
07:00 4.9° 1007.5 hPa 4.7 m/s 1.3 mm
13:00 7.3° 1011.0 hPa 6.0 m/s 0.8 mm
19:00 6.2° 1012.9 hPa 5.1 m/s 0.8 mm
 07:11     18:35    Daglengte: 11:24 Zondag 08 Maa
01:00 5.1° 1014.5 hPa 4.6 m/s 0.6 mm
07:00 4.5° 1012.7 hPa 3.1 m/s 1.6 mm
13:00 7.4° 1011.6 hPa 4.5 m/s 1.2 mm
19:00 6.4° 1010.7 hPa 3.7 m/s 1.4 mm
 07:09     18:37    Daglengte: 11:28 Maandag 09 Maa
01:00 5.3° 1011.7 hPa 4.4 m/s 1.2 mm
07:00 4.6° 1012.3 hPa 3.4 m/s 0.6 mm
FMI Hirlam - 7.5 km EWN WRFDA - 12 km DWD ICON - 7 km GFS - 25 km Basiskaart






























































Updatetijd (Europe/Amsterdam) Resolutie Lengte Stap
FMI Hirlam 06:15, 12:15, 18:15, 00:15 7.5 km 49h 1h
EWN WRFDA 08:45, 14:45, 20:45, 02:45 12 km 73h 1h
DWD ICON 10:45, 16:45, 22:45, 04:45 7 km 75h 1h
GFS 07:00, 13:00, 19:00, 01:00 25 km 237h 3h
30+ mm
25-30 mm
20-25 mm
15-20 mm
10-15 mm
6-10 mm
4-6 mm
2-4 mm
1-2 mm
0.5-1 mm
0.2-0.5 mm
0.1-0.2 mm
30+ mm
25-30 mm
20-25 mm
15-20 mm
10-15 mm
6-10 mm
4-6 mm
2-4 mm
1-2 mm
0.5-1 mm
0.2-0.5 mm
0.1-0.2 mm
Sneeuwval
Natte sneeuw
Hagel
Vorst
30+ mm
25-30 mm
20-25 mm
15-20 mm
10-15 mm
6-10 mm
4-6 mm
2-4 mm
1-2 mm
0.5-1 mm
0.2-0.5 mm
0.1-0.2 mm
Sneeuwval
Natte sneeuw
Hagel
Vorst
Onweer
50 mm
40 mm
30 mm
26 mm
22 mm
18 mm
14 mm
10 mm
9 mm
8 mm
7 mm
6 mm
5 mm
4.5 mm
4 mm
3.5 mm
3 mm
2.5 mm
2 mm
1.5 mm
1 mm
0.8 mm
0.6 mm
0.4 mm
0.2 mm
0.05 mm
35°
30°
25°
20°
15°
10°
-5°
-10°
-15°
-20°
-25°
-30°
-35°
33> m/s
29 m/s
25 m/s
21 m/s
17 m/s
14 m/s
11 m/s
8 m/s
5 m/s
3 m/s
0 m/s
2600 J/kg
2400 J/kg
2200 J/kg
2000 J/kg
1800 J/kg
1600 J/kg
1400 J/kg
1200 J/kg
1000 J/kg
800 J/kg
600 J/kg
400 J/kg
200 J/kg
70 dBZ
65 dBZ
60 dBZ
55 dBZ
50 dBZ
45 dBZ
40 dBZ
35 dBZ
30 dBZ
25 dBZ
20 dBZ
15 dBZ
10 dBZ
5 dBZ
-1 K
-2 K
-3 K
-4 K
-5 K
-6 K
-7 K
-8 K
-9 K
950 m²/s²
900 m²/s²
850 m²/s²
800 m²/s²
750 m²/s²
700 m²/s²
650 m²/s²
600 m²/s²
550 m²/s²
500 m²/s²
450 m²/s²
400 m²/s²
350 m²/s²
300 m²/s²
250 m²/s²
200 m²/s²
150 m²/s²
100 m²/s²
46 m/s
44 m/s
42 m/s
40 m/s
38 m/s
36 m/s
34 m/s
32 m/s
30 m/s
28 m/s
26 m/s
24 m/s
22 m/s
20 m/s
16 m/s
12 m/s
8 m/s
4 m/s
30 m/s
28 m/s
26 m/s
24 m/s
22 m/s
20 m/s
18 m/s
16 m/s
14 m/s
12 m/s
10 m/s
8 m/s
6 m/s
4 m/s
2 m/s
3.0
2.8
2.6
2.4
2.2
2.0
1.8
1.6
1.4
1.2
1.0
0.8
0.6
0.4
0.2
15
14
13
12
11
10
9
8
7
6
5
4
3
2
1
90%
80%
70%
60%
50%
40%
30%
20%
10%
42
40
38
36
34
32
30
28
26
24
22
20
18
16
14
12
90+ cm
80-90 cm
70-80 cm
60-70 cm
50-60 cm
40-50 cm
30-40 cm
20-30 cm
10-20 cm
1-10 cm
Sneeuwval
Natte sneeuw
Regen
>120 mm
115 mm
110 mm
105 mm
100 mm
95 mm
90 mm
85 mm
80 mm
75 mm
70 mm
65 mm
60 mm
55 mm
50 mm
45 mm
45 mm
40 mm
35 mm
30 mm
25 mm
20 mm
15 mm
10 mm
5 mm
0.1 mm
960 hPa
880 hPa
800 hPa
720 hPa
640 hPa
560 hPa
584 gpdm
568 gpdm
552 gpdm
536 gpdm
520 gpdm
504 gpdm
488 gpdm
Extreem zwaar Noodweer Kans op onweer
15% 15% 5% 50% 15%

Dag




Kaart






35°
30°
25°
20°
15°
10°
-5°
-10°
-15°
-20°
-25°
-30°
-35°